sat.trackr.live / text

‹ back to catalog

STARLINK-33661

NORAD 63646 · 2025-083N

PAYLOAD ACTIVE UNKNOWN

§ Identity

Operator
Country
US
Launch date
2025-04-25
Launch site
AFETR
Launch vehicle
Mass (kg)
RCS (m²)

Purposes: comms

External: N2YO · Heavens-Above · Gunter

§ Orbital elements

Epoch: 2026-09-20T16:59:26.156832Z

Period
94.27 min
Inclination
43.0008°
Eccentricity
0.0001315
Mean motion
15.27587037 rev/d
Perigee alt
482.1 km
Apogee alt
483.9 km
Semi-major
6,861.2 km
B*
4.5740e-4
RAAN
343.7339°
Arg perigee
267.6013°
Mean anomaly
92.4688°
Rev number
7,992

§ Raw data

STARLINK-336611 63646U 25083N   26263.70794163  .00012348  00000+0  45740-3 0  99992 63646  43.0008 343.7339 0001315 267.6013  92.4688 15.27587037 79928

JSON: /api/v1/satellites/63646 · /tle

For live sub-satellite position, see the globe view (requires WebGL).

§ Visibility from observer

Set your observer location to see the next 7 days of passes ≥ 10°. The values pass through the URL so the page stays shareable.

No JS? Fill the form by hand. The geolocation button needs JavaScript.